Back to catalog

STARLINK-32096

AliveCommunicationsVLEO
NORAD 59698·PAYLOAD·🇺🇸 United States

Launched May 8, 2024 from Cape Canaveral Space Force Station

Loading…

Next Passes (next 24 hours)

TLE

FreshSource: CelesTrak SupGP

Epoch: Sep 14, 2026, 22:13 UTC

1 59698C 24086S   26257.92618056  .00038542  00000+0  13963-2 0  2578
2 59698  43.0023  71.1584 0001462 272.7313  91.7544 15.27551542    13

Track STARLINK-32096 in real time with AllMySat

Download on the App Store